Craig, CO

10:04 PM MST on February 06, 2016 (GMT -0700)
Craig-Moffat

Weather History for KCAG - October, 2011

Change the Weather History Date:

Wednesday, October 26, 2011

  Actual Average Record
Temperature  
Mean Temperature 31 °F 39 °F  
Max Temperature 39 °F 55 °F 71 °F (1999)
Min Temperature 21 °F 23 °F 7 °F (1996)
Degree Days  
Heating Degree Days 34 26  
Month to date heating degree days 545  
Since 1 July heating degree days 910  
Cooling Degree Days 0 0  
Month to date cooling degree days 0  
Year to date cooling degree days 142  
Moisture  
Dew Point 31 °F    
Average Humidity 88    
Maximum Humidity 100    
Minimum Humidity 51    
Precipitation  
Precipitation 0.25 in 0.05 in 0.35 in (2014)
Month to date precipitation 1.40  
Year to date precipitation 13.36  
Sea Level Pressure  
Sea Level Pressure 30.10 in    
Wind  
Wind Speed 5 mph (West)    
Max Wind Speed 17 mph    
Max Gust Speed 26 mph    
Visibility 6 miles    
Events Fog , Rain , Snow    
T = Trace of Precipitation, MM = Missing Value Source: NWS Daily Summary

Daily Weather History Graph

Daily Weather History Graph

Search for Another Location

Airport or City:

Trip Planner

Search our weather history database for the weather conditions in past years. The results will help you decide how hot, cold, wet, or windy it might be!

Date:

Astronomy

Oct. 26, 2011 Rise Set
Actual Time 7:32 AM MDT 6:14 PM MDT
Civil Twilight 7:04 AM MDT 6:42 PM MDT
Nautical Twilight 6:32 AM MDT 7:14 PM MDT
Astronomical Twilight 6:01 AM MDT 7:46 PM MDT
Moon 7:24 AM MDT (10/26) 5:58 PM MDT (10/26)
Length of Visible Light 11h 37m
Length of Day
10h 41m
Waning Crescent, 0% of the Moon is Illuminated
Oct 26
Waning Crescent
Oct 26
New
Nov 2
First Quarter
Nov 10
Full
Nov 18
Last Quarter

Hourly Weather History & Observations

Time (MDT) Temp. Windchill Dew Point Humidity Pressure Visibility Wind Dir Wind Speed Gust Speed Precip Events Conditions
12:06 AM 37.4 °F 34.9 °F 35.6 °F 93% 30.08 in 10.0 mi ENE 3.5 mph - 0.01 in Rain Light Rain
12:33 AM 37.4 °F - 33.8 °F 87% 30.10 in 8.0 mi Calm Calm - 0.04 in Rain Light Rain
12:53 AM 34.0 °F 31.0 °F 32.0 °F 92% 30.04 in 3.0 mi NNW 3.5 mph - 0.08 in Rain Heavy Rain
1:01 AM 33.8 °F - 32.0 °F 93% 30.10 in 2.0 mi Calm Calm - 0.02 in Snow Light Snow
1:09 AM 33.8 °F 30.8 °F 32.0 °F 93% 30.09 in 1.8 mi East 3.5 mph - N/A Snow Light Snow
1:21 AM 33.8 °F 30.8 °F 32.0 °F 93% 30.10 in 2.0 mi ENE 3.5 mph - 0.04 in Snow Light Snow
1:37 AM 33.8 °F - 33.8 °F 100% 30.09 in 5.0 mi Calm Calm - 0.05 in Snow Light Snow
1:53 AM 34.0 °F 31.0 °F 32.0 °F 92% 30.02 in 7.0 mi East 3.5 mph - 0.06 in Rain Light Rain
2:22 AM 33.8 °F 28.6 °F 33.8 °F 100% 30.06 in 9.0 mi East 5.8 mph - 0.01 in Rain Light Rain
2:53 AM 35.1 °F - 33.1 °F 92% 30.01 in 10.0 mi Calm Calm - 0.01 in   Overcast
3:53 AM 36.0 °F 28.0 °F 33.1 °F 89% 30.00 in 10.0 mi SE 11.5 mph - N/A   Overcast
4:53 AM 36.0 °F 30.3 °F 33.1 °F 89% 30.04 in 10.0 mi North 6.9 mph - 0.00 in Rain Light Rain
5:11 AM 35.6 °F 28.6 °F 33.8 °F 93% 30.05 in 10.0 mi NNE 9.2 mph - 0.00 in Rain Light Rain
5:29 AM 33.8 °F 28.6 °F 32.0 °F 93% 30.06 in 8.0 mi NNE 5.8 mph - 0.00 in Snow Light Snow
5:53 AM 33.8 °F - 32.0 °F 93% 30.05 in 9.0 mi Calm Calm - N/A   Overcast
6:04 AM 33.8 °F - 32.0 °F 93% 30.06 in 10.0 mi Calm Calm - N/A   Overcast
6:53 AM 34.0 °F 31.0 °F 32.0 °F 92% 30.08 in 10.0 mi NW 3.5 mph - N/A   Overcast
7:02 AM 33.8 °F 30.8 °F 32.0 °F 93% 30.06 in 9.0 mi NNW 3.5 mph - N/A   Overcast
7:10 AM 33.8 °F - 32.0 °F 93% 30.06 in 6.0 mi Calm Calm - 0.00 in Snow Light Snow
7:41 AM 33.8 °F - 32.0 °F 93% 30.06 in 4.0 mi Calm Calm - 0.00 in Snow Light Snow
7:53 AM 34.0 °F - 32.0 °F 92% 30.08 in 7.0 mi Calm Calm - 0.00 in Snow Light Snow
8:43 AM 33.8 °F 28.6 °F 33.8 °F 100% 30.08 in 10.0 mi West 5.8 mph - 0.00 in   Overcast
8:53 AM 33.8 °F 28.6 °F 33.8 °F 100% 30.08 in 10.0 mi West 5.8 mph - N/A   Overcast
9:53 AM 34.0 °F 28.8 °F 33.1 °F 96% 30.10 in 3.0 mi WSW 5.8 mph - 0.00 in Snow Light Snow
10:02 AM 33.8 °F 27.0 °F 33.8 °F 100% 30.09 in 2.0 mi SW 8.1 mph - 0.00 in Snow Light Snow
10:06 AM 33.8 °F 27.0 °F 32.0 °F 93% 30.09 in 1.0 mi WSW 8.1 mph - 0.01 in Snow Light Snow
10:13 AM 33.8 °F 27.0 °F 30.2 °F 87% 30.09 in 0.5 mi SW 8.1 mph - 0.03 in Fog , Snow Snow
10:30 AM 33.8 °F - 32.0 °F 93% 30.09 in 0.5 mi Calm Calm - 0.07 in Fog , Snow Light Snow
10:50 AM 33.8 °F 29.6 °F 30.2 °F 87% 30.09 in 1.2 mi North 4.6 mph - 0.08 in Snow Light Snow
10:53 AM 33.1 °F 26.9 °F 30.9 °F 92% 30.12 in 1.2 mi North 6.9 mph - 0.08 in Snow Light Snow
11:06 AM 33.8 °F 30.8 °F 30.2 °F 87% 30.09 in 1.5 mi Variable 3.5 mph - 0.00 in Snow Light Snow
11:53 AM 34.0 °F 29.8 °F 30.9 °F 89% 30.13 in 1.8 mi WNW 4.6 mph - 0.01 in Snow Light Snow
12:01 PM 33.8 °F 29.6 °F 32.0 °F 93% 30.10 in 2.0 mi WNW 4.6 mph - 0.00 in Snow Light Snow
12:04 PM 33.8 °F 29.6 °F 32.0 °F 93% 30.10 in 2.0 mi West 4.6 mph - 0.00 in Snow Light Snow
12:22 PM 33.8 °F 29.6 °F 32.0 °F 93% 30.10 in 1.8 mi West 4.6 mph - 0.00 in Snow Light Snow
12:25 PM 35.6 °F 31.7 °F 32.0 °F 87% 30.10 in 2.0 mi WSW 4.6 mph - 0.00 in Snow Light Snow
12:29 PM 35.6 °F 29.9 °F 33.8 °F 93% 30.10 in 3.0 mi WSW 6.9 mph - N/A Snow Light Snow
12:49 PM 35.6 °F 28.0 °F 33.8 °F 93% 30.10 in 2.5 mi WSW 10.4 mph - 0.00 in Snow Light Snow
12:53 PM 35.1 °F 27.9 °F 33.1 °F 92% 30.13 in 1.5 mi SW 9.2 mph - 0.01 in Snow Light Snow
1:12 PM 35.6 °F 27.5 °F 33.8 °F 93% 30.09 in 2.5 mi SW 11.5 mph - 0.00 in Snow Light Snow
1:17 PM 35.6 °F 27.5 °F 33.8 °F 93% 30.09 in 5.0 mi SW 11.5 mph - 0.00 in Snow Light Snow
1:25 PM 37.4 °F 29.3 °F 33.8 °F 87% 30.08 in 9.0 mi WSW 12.7 mph 20.7 mph 0.00 in   Overcast
1:53 PM 37.4 °F 28.9 °F 33.8 °F 87% 30.08 in 10.0 mi WSW 13.8 mph - N/A   Overcast
2:15 PM 37.4 °F 28.9 °F 33.8 °F 87% 30.07 in 10.0 mi SW 13.8 mph - N/A   Overcast
2:53 PM 37.0 °F 28.1 °F 33.1 °F 86% 30.09 in 10.0 mi SW 15.0 mph - N/A   Overcast
3:53 PM 39.9 °F 33.4 °F 28.0 °F 63% 30.08 in 10.0 mi NW 10.4 mph - N/A   Overcast
4:53 PM 39.9 °F 32.5 °F 23.0 °F 51% 30.10 in 10.0 mi NW 12.7 mph 19.6 mph N/A   Mostly Cloudy
5:53 PM 35.1 °F 24.8 °F 21.0 °F 57% 30.15 in 10.0 mi NNW 17.3 mph 26.5 mph N/A   Mostly Cloudy
6:53 PM 30.9 °F 21.7 °F 19.9 °F 64% 30.21 in 10.0 mi SW 11.5 mph 16.1 mph N/A   Clear
7:53 PM 30.9 °F 26.2 °F 18.0 °F 59% 30.22 in 10.0 mi WNW 4.6 mph - N/A   Mostly Cloudy
8:53 PM 27.0 °F 21.6 °F 19.9 °F 75% 30.25 in 10.0 mi WSW 4.6 mph - N/A   Partly Cloudy
9:53 PM 25.0 °F 17.1 °F 19.9 °F 81% 30.27 in 10.0 mi SSW 6.9 mph - N/A   Partly Cloudy
10:53 PM 23.0 °F - 18.0 °F 81% 30.30 in 10.0 mi Calm Calm - N/A   Clear
11:53 PM 21.0 °F - 18.0 °F 88% 30.30 in 10.0 mi Calm Calm - N/A   Clear